Location: Gilevgi
(36.8751°N, 30.0581°E)
Time: 09:43:31
(UTC+00:00)

IRS-P3 - Pass Details

Date: 20 March 2026
Orbit: 810 x 816 km, 99.0° (Epoch: 20 April)

Event Time Altitude Azimuth Distance (km) Brightness Sun altitude
Rises 16:31:16 0° 173° (S) 3,326 7.2 -4.8°
Reaches altitude 10° 16:33:37 10° 176° (S) 2,398 6.5 -5.3°
Maximum altitude 16:38:52 64° 258° (WSW) 901 4.7 -6.3°
Drops below altitude 10° 16:44:10 10° 340° (NNW) 2,411 6.9 -7.4°
Sets 16:46:33 0° 343° (NNW) 3,346 7.6 -7.8°
